Wetterdaten: Sonntag, 18.07.2004
Datum Zeit Temp. A Sch. Temp. A Son. Feuchte A. Luftdruck Regen Wind Richtung Richtung Sonnenschein Helligkeit Taupunkt Windchill
18.07.2004 00:00 16,4 C 17,3 C 92 % 1015 hPa 0,0 l/m 1,7 m/s (1 Bft) O22.5 90 0,00 min 0 lux 15,1 C 16,4 C
18.07.2004 00:05 16,4 C 17,3 C 92 % 1016 hPa 0,0 l/m 1,0 m/s (0 Bft) NO22.5 55 0,00 min 0 lux 15,1 C 16,4 C
18.07.2004 00:10 16,3 C 17,2 C 92 % 1016 hPa 0,0 l/m 0,0 m/s (0 Bft) O-SO 110 0,00 min 0 lux 15,0 C 16,3 C
18.07.2004 00:15 16,2 C 17,2 C 92 % 1016 hPa 0,0 l/m 0,0 m/s (0 Bft) O 90 0,00 min 0 lux 14,9 C 16,2 C
18.07.2004 00:20 16,0 C 17,1 C 92 % 1016 hPa 0,0 l/m 0,0 m/s (0 Bft) O 85 0,00 min 0 lux 14,7 C 16,0 C
18.07.2004 00:25 16,1 C 16,9 C 92 % 1016 hPa 0,0 l/m 0,0 m/s (0 Bft) O 85 0,00 min 0 lux 14,8 C 16,1 C
18.07.2004 00:30 16,1 C 16,9 C 92 % 1016 hPa 0,0 l/m 0,0 m/s (0 Bft) O 85 0,00 min 0 lux 14,8 C 16,1 C
18.07.2004 00:35 16,0 C 16,9 C 92 % 1016 hPa 0,0 l/m 0,0 m/s (0 Bft) O 85 0,00 min 0 lux 14,7 C 16,0 C
18.07.2004 00:40 16,1 C 16,9 C 93 % 1016 hPa 0,0 l/m 0,0 m/s (0 Bft) O 85 0,00 min 0 lux 15,0 C 16,1 C
18.07.2004 00:45 16,0 C 16,8 C 92 % 1016 hPa 0,0 l/m 0,0 m/s (0 Bft) O 85 0,00 min 0 lux 14,7 C 16,0 C
18.07.2004 00:50 16,0 C 16,8 C 93 % 1016 hPa 0,0 l/m 0,9 m/s (0 Bft) O-NO22.5 60 0,00 min 0 lux 14,9 C 16,0 C
18.07.2004 00:55 15,9 C 16,8 C 93 % 1016 hPa 0,0 l/m 0,2 m/s (0 Bft) O-NO22.5 60 0,00 min 0 lux 14,8 C 15,9 C
18.07.2004 01:00 15,9 C 16,8 C 93 % 1016 hPa 0,0 l/m 0,0 m/s (0 Bft) O-NO 60 0,00 min 0 lux 14,8 C 15,9 C
18.07.2004 01:05 16,1 C 16,7 C 93 % 1016 hPa 0,0 l/m 0,0 m/s (0 Bft) O-NO 60 0,00 min 0 lux 15,0 C 16,1 C
18.07.2004 01:10 16,1 C 16,7 C 93 % 1016 hPa 0,0 l/m 0,0 m/s (0 Bft) O-NO 60 0,00 min 0 lux 15,0 C 16,1 C
18.07.2004 01:15 16,2 C 16,7 C 93 % 1016 hPa 0,0 l/m 0,3 m/s (0 Bft) O-SO45 110 0,00 min 0 lux 15,1 C 16,2 C
18.07.2004 01:20 16,2 C 16,7 C 93 % 1016 hPa 0,0 l/m 1,8 m/s (1 Bft) O22.5 90 0,00 min 0 lux 15,1 C 16,2 C
18.07.2004 01:25 16,3 C 16,7 C 93 % 1016 hPa 0,0 l/m 1,2 m/s (1 Bft) O-SO22.5 105 0,00 min 0 lux 15,2 C 16,3 C
18.07.2004 01:30 16,1 C 16,7 C 93 % 1016 hPa 0,0 l/m 0,0 m/s (0 Bft) O 90 0,00 min 0 lux 15,0 C 16,1 C
18.07.2004 01:35 16,0 C 16,6 C 93 % 1016 hPa 0,0 l/m 0,0 m/s (0 Bft) O 90 0,00 min 0 lux 14,9 C 16,0 C
18.07.2004 01:40 16,0 C 16,6 C 93 % 1016 hPa 0,0 l/m 0,0 m/s (0 Bft) O 90 0,00 min 0 lux 14,9 C 16,0 C
18.07.2004 01:45 16,0 C 16,6 C 93 % 1016 hPa 0,0 l/m 0,0 m/s (0 Bft) O 90 0,00 min 0 lux 14,9 C 16,0 C
18.07.2004 01:50 16,0 C 16,5 C 93 % 1016 hPa 0,0 l/m 0,7 m/s (0 Bft) S 175 0,00 min 0 lux 14,9 C 16,0 C
18.07.2004 01:55 16,0 C 16,5 C 93 % 1016 hPa 0,0 l/m 0,0 m/s (0 Bft) W-SW 245 0,00 min 0 lux 14,9 C 16,0 C
18.07.2004 02:00 15,9 C 16,5 C 94 % 1016 hPa 0,0 l/m 0,0 m/s (0 Bft) W-SW 245 0,00 min 0 lux 14,9 C 15,9 C
18.07.2004 02:05 15,8 C 16,4 C 94 % 1016 hPa 0,0 l/m 0,0 m/s (0 Bft) W-SW 245 0,00 min 0 lux 14,8 C 15,8 C
18.07.2004 02:10 15,6 C 16,4 C 94 % 1016 hPa 0,0 l/m 0,0 m/s (0 Bft) W-SW 245 0,00 min 0 lux 14,6 C 15,6 C
18.07.2004 02:15 15,7 C 16,3 C 94 % 1016 hPa 0,0 l/m 0,0 m/s (0 Bft) W-SW 240 0,00 min 0 lux 14,7 C 15,7 C
18.07.2004 02:20 15,6 C 16,3 C 94 % 1016 hPa 0,0 l/m 0,0 m/s (0 Bft) W-SW 240 0,00 min 0 lux 14,6 C 15,6 C
18.07.2004 02:25 15,4 C 16,3 C 94 % 1016 hPa 0,0 l/m 0,0 m/s (0 Bft) W-SW 240 0,00 min 0 lux 14,4 C 15,4 C
18.07.2004 02:30 15,5 C 16,1 C 94 % 1016 hPa 0,0 l/m 0,0 m/s (0 Bft) W-SW 240 0,00 min 0 lux 14,5 C 15,5 C
18.07.2004 02:35 15,3 C 16,1 C 94 % 1016 hPa 0,0 l/m 0,0 m/s (0 Bft) W-SW 240 0,00 min 0 lux 14,3 C 15,3 C
18.07.2004 02:40 15,3 C 16,0 C 94 % 1016 hPa 0,0 l/m 0,0 m/s (0 Bft) W-NW45 295 0,00 min 0 lux 14,3 C 15,3 C
18.07.2004 02:45 15,3 C 15,9 C 94 % 1016 hPa 0,0 l/m 0,0 m/s (0 Bft) NO 40 0,00 min 0 lux 14,3 C 15,3 C
18.07.2004 02:50 15,2 C 15,8 C 94 % 1016 hPa 0,0 l/m 0,0 m/s (0 Bft) N-NW 345 0,00 min 0 lux 14,2 C 15,2 C
18.07.2004 02:55 14,9 C 15,8 C 95 % 1016 hPa 0,0 l/m 0,0 m/s (0 Bft) O-NO 65 0,00 min 0 lux 14,1 C 14,9 C
18.07.2004 03:00 14,8 C 15,7 C 95 % 1016 hPa 0,0 l/m 0,0 m/s (0 Bft) O-NO 65 0,00 min 0 lux 14,0 C 14,8 C
18.07.2004 03:05 14,8 C 15,6 C 95 % 1016 hPa 0,0 l/m 0,0 m/s (0 Bft) O-NO 70 0,00 min 0 lux 14,0 C 14,8 C
18.07.2004 03:10 14,7 C 15,6 C 95 % 1016 hPa 0,0 l/m 1,0 m/s (0 Bft) O22.5 95 0,00 min 0 lux 13,9 C 14,7 C
18.07.2004 03:15 14,8 C 15,5 C 95 % 1016 hPa 0,0 l/m 1,0 m/s (0 Bft) O 85 0,00 min 0 lux 14,0 C 14,8 C
18.07.2004 03:20 14,8 C 15,5 C 95 % 1016 hPa 0,0 l/m 0,0 m/s (0 Bft) O22.5 95 0,00 min 0 lux 14,0 C 14,8 C
18.07.2004 03:25 14,7 C 15,5 C 95 % 1016 hPa 0,0 l/m 0,0 m/s (0 Bft) O 95 0,00 min 0 lux 13,9 C 14,7 C
18.07.2004 03:30 14,8 C 15,4 C 95 % 1016 hPa 0,0 l/m 0,0 m/s (0 Bft) O 95 0,00 min 0 lux 14,0 C 14,8 C
18.07.2004 03:35 15,0 C 15,4 C 95 % 1016 hPa 0,0 l/m 1,3 m/s (1 Bft) O-NO22.5 65 0,00 min 0 lux 14,2 C 15,0 C
18.07.2004 03:40 14,8 C 15,4 C 95 % 1016 hPa 0,0 l/m 0,8 m/s (0 Bft) O-NO 70 0,00 min 0 lux 14,0 C 14,8 C
18.07.2004 03:45 14,8 C 15,3 C 95 % 1016 hPa 0,0 l/m 0,2 m/s (0 Bft) O-NO 75 0,00 min 0 lux 14,0 C 14,8 C
18.07.2004 03:50 14,8 C 15,3 C 95 % 1016 hPa 0,0 l/m 0,0 m/s (0 Bft) O-NO 75 0,00 min 0 lux 14,0 C 14,8 C
18.07.2004 03:55 14,7 C 15,3 C 95 % 1016 hPa 0,0 l/m 0,0 m/s (0 Bft) O-NO 75 0,00 min 0 lux 13,9 C 14,7 C
18.07.2004 04:00 14,7 C 15,3 C 95 % 1016 hPa 0,0 l/m 0,0 m/s (0 Bft) O-NO 75 0,00 min 0 lux 13,9 C 14,7 C
18.07.2004 04:05 14,9 C 15,2 C 95 % 1016 hPa 0,0 l/m 0,8 m/s (0 Bft) O 80 0,00 min 0 lux 14,1 C 14,9 C
18.07.2004 04:10 14,8 C 15,2 C 95 % 1016 hPa 0,0 l/m 0,1 m/s (0 Bft) O-NO22.5 70 0,00 min 0 lux 14,0 C 14,8 C
18.07.2004 04:15 14,8 C 15,2 C 95 % 1016 hPa 0,0 l/m 0,0 m/s (0 Bft) O-NO 60 0,00 min 0 lux 14,0 C 14,8 C
18.07.2004 04:20 14,7 C 15,2 C 95 % 1016 hPa 0,0 l/m 0,0 m/s (0 Bft) O22.5 80 0,00 min 0 lux 13,9 C 14,7 C
18.07.2004 04:25 14,7 C 15,2 C 95 % 1016 hPa 0,0 l/m 0,0 m/s (0 Bft) O 95 0,00 min 0 lux 13,9 C 14,7 C
18.07.2004 04:30 14,8 C 15,2 C 95 % 1016 hPa 0,0 l/m 0,0 m/s (0 Bft) O 95 0,00 min 0 lux 14,0 C 14,8 C
18.07.2004 04:35 14,8 C 15,2 C 95 % 1016 hPa 0,0 l/m 0,0 m/s (0 Bft) O-NO 75 0,00 min 0 lux 14,0 C 14,8 C
18.07.2004 04:40 14,8 C 15,2 C 95 % 1016 hPa 0,0 l/m 0,0 m/s (0 Bft) O-NO 75 0,00 min 0 lux 14,0 C 14,8 C
18.07.2004 04:45 14,8 C 15,2 C 95 % 1016 hPa 0,0 l/m 0,0 m/s (0 Bft) O-NO 75 0,00 min 0 lux 14,0 C 14,8 C
18.07.2004 04:50 14,8 C 15,2 C 95 % 1016 hPa 0,0 l/m 0,0 m/s (0 Bft) O-NO 75 0,00 min 0 lux 14,0 C 14,8 C
18.07.2004 04:55 14,7 C 15,1 C 95 % 1016 hPa 0,0 l/m 0,0 m/s (0 Bft) O-NO 75 0,00 min 0 lux 13,9 C 14,7 C
18.07.2004 05:00 14,7 C 15,1 C 95 % 1016 hPa 0,0 l/m 0,0 m/s (0 Bft) O-NO 75 0,00 min 0 lux 13,9 C 14,7 C
18.07.2004 05:05 14,7 C 15,1 C 95 % 1016 hPa 0,0 l/m 0,6 m/s (0 Bft) O-NO 75 0,00 min 0 lux 13,9 C 14,7 C
18.07.2004 05:10 14,3 C 15,0 C 95 % 1016 hPa 0,0 l/m 0,0 m/s (0 Bft) O-NO 75 0,00 min 0 lux 13,5 C 14,3 C
18.07.2004 05:15 14,5 C 14,9 C 95 % 1016 hPa 0,0 l/m 0,0 m/s (0 Bft) O-NO 75 0,00 min 48 lux 13,7 C 14,5 C
18.07.2004 05:20 14,4 C 14,9 C 95 % 1016 hPa 0,0 l/m 0,0 m/s (0 Bft) O-NO 75 0,00 min 89 lux 13,6 C 14,4 C
18.07.2004 05:25 14,3 C 14,8 C 95 % 1016 hPa 0,0 l/m 0,0 m/s (0 Bft) O-NO 75 0,00 min 115 lux 13,5 C 14,3 C
18.07.2004 05:30 14,3 C 14,7 C 95 % 1016 hPa 0,0 l/m 0,0 m/s (0 Bft) O-NO 75 0,00 min 185 lux 13,5 C 14,3 C
18.07.2004 05:35 14,2 C 14,7 C 95 % 1016 hPa 0,0 l/m 0,0 m/s (0 Bft) O-NO 75 0,00 min 294 lux 13,4 C 14,2 C
18.07.2004 05:40 14,0 C 14,6 C 95 % 1016 hPa 0,0 l/m 0,5 m/s (0 Bft) O-NO 75 0,00 min 418 lux 13,2 C 14,0 C
18.07.2004 05:45 14,0 C 14,6 C 95 % 1016 hPa 0,0 l/m 0,7 m/s (0 Bft) O 85 0,00 min 591 lux 13,2 C 14,0 C
18.07.2004 05:50 14,1 C 14,5 C 95 % 1016 hPa 0,0 l/m 0,0 m/s (0 Bft) O 95 0,00 min 800 lux 13,3 C 14,1 C
18.07.2004 05:55 14,1 C 14,5 C 95 % 1016 hPa 0,0 l/m 0,0 m/s (0 Bft) O 95 0,00 min 1,09 klux 13,3 C 14,1 C
18.07.2004 06:00 14,0 C 14,5 C 95 % 1016 hPa 0,0 l/m 0,0 m/s (0 Bft) O 95 0,00 min 1,27 klux 13,2 C 14,0 C
18.07.2004 06:05 14,1 C 14,5 C 95 % 1016 hPa 0,0 l/m 0,0 m/s (0 Bft) O 95 0,00 min 1,90 klux 13,3 C 14,1 C
18.07.2004 06:10 13,9 C 14,5 C 95 % 1016 hPa 0,0 l/m 0,0 m/s (0 Bft) O 95 0,00 min 2,90 klux 13,1 C 13,9 C
18.07.2004 06:15 14,0 C 14,5 C 95 % 1016 hPa 0,0 l/m 0,0 m/s (0 Bft) O 95 0,00 min 3,76 klux 13,2 C 14,0 C
18.07.2004 06:20 14,0 C 14,5 C 95 % 1017 hPa 0,0 l/m 0,0 m/s (0 Bft) O 95 0,00 min 4,21 klux 13,2 C 14,0 C
18.07.2004 06:25 14,1 C 14,5 C 95 % 1016 hPa 0,0 l/m 0,0 m/s (0 Bft) O 95 0,00 min 5,97 klux 13,3 C 14,1 C
18.07.2004 06:30 14,1 C 14,5 C 95 % 1016 hPa 0,0 l/m 0,0 m/s (0 Bft) O 95 0,00 min 7,37 klux 13,3 C 14,1 C
18.07.2004 06:35 14,2 C 14,6 C 95 % 1016 hPa 0,0 l/m 0,0 m/s (0 Bft) O 95 5,00 min 10,4 klux 13,4 C 14,2 C
18.07.2004 06:40 14,7 C 14,6 C 95 % 1016 hPa 0,0 l/m 0,0 m/s (0 Bft) O 95 5,00 min 13,0 klux 13,9 C 14,7 C
18.07.2004 06:45 15,0 C 14,8 C 95 % 1016 hPa 0,0 l/m 0,0 m/s (0 Bft) O 95 5,00 min 14,8 klux 14,2 C 15,0 C
18.07.2004 06:50 15,4 C 14,8 C 95 % 1016 hPa 0,0 l/m 0,0 m/s (0 Bft) O 95 5,00 min 16,6 klux 14,6 C 15,4 C
18.07.2004 06:55 15,7 C 15,0 C 95 % 1016 hPa 0,0 l/m 0,0 m/s (0 Bft) O 95 5,00 min 19,6 klux 14,9 C 15,7 C
18.07.2004 07:00 16,0 C 15,1 C 95 % 1016 hPa 0,0 l/m 0,0 m/s (0 Bft) O 95 5,00 min 21,2 klux 15,2 C 16,0 C
18.07.2004 07:05 16,6 C 15,2 C 94 % 1016 hPa 0,0 l/m 0,0 m/s (0 Bft) O 95 5,00 min 19,5 klux 15,6 C 16,6 C
18.07.2004 07:10 16,0 C 15,3 C 93 % 1016 hPa 0,0 l/m 0,0 m/s (0 Bft) O 95 5,00 min 19,7 klux 14,9 C 16,0 C
18.07.2004 07:15 16,4 C 15,4 C 90 % 1016 hPa 0,0 l/m 0,0 m/s (0 Bft) O 95 0,00 min 17,2 klux 14,8 C 16,4 C
18.07.2004 07:20 16,4 C 15,6 C 89 % 1016 hPa 0,0 l/m 0,0 m/s (0 Bft) O 95 0,00 min 13,3 klux 14,6 C 16,4 C
18.07.2004 07:25 16,1 C 15,6 C 89 % 1016 hPa 0,0 l/m 0,0 m/s (0 Bft) O 95 0,00 min 15,4 klux 14,3 C 16,1 C
18.07.2004 07:30 16,1 C 15,8 C 89 % 1016 hPa 0,0 l/m 0,0 m/s (0 Bft) O 95 0,00 min 17,4 klux 14,3 C 16,1 C
18.07.2004 07:35 16,4 C 15,9 C 89 % 1016 hPa 0,0 l/m 0,0 m/s (0 Bft) O 95 0,00 min 21,8 klux 14,6 C 16,4 C
18.07.2004 07:40 16,5 C 15,9 C 88 % 1016 hPa 0,0 l/m 0,0 m/s (0 Bft) O22.5 85 5,00 min 26,6 klux 14,5 C 16,5 C
18.07.2004 07:45 17,5 C 16,0 C 85 % 1016 hPa 0,0 l/m 0,0 m/s (0 Bft) O 80 5,00 min 34,1 klux 14,9 C 17,5 C
18.07.2004 07:50 18,3 C 16,4 C 79 % 1016 hPa 0,0 l/m 0,0 m/s (0 Bft) O 80 5,00 min 34,8 klux 14,6 C 18,3 C
18.07.2004 07:55 19,1 C 16,5 C 76 % 1016 hPa 0,0 l/m 0,7 m/s (0 Bft) O-NO 70 5,00 min 38,0 klux 14,8 C 19,1 C
18.07.2004 08:00 19,5 C 16,7 C 74 % 1016 hPa 0,0 l/m 0,0 m/s (0 Bft) O 85 5,00 min 31,6 klux 14,7 C 19,5 C
18.07.2004 08:05 19,5 C 16,9 C 72 % 1016 hPa 0,0 l/m 0,0 m/s (0 Bft) O-SO 115 0,00 min 26,4 klux 14,3 C 19,5 C
18.07.2004 08:10 19,0 C 17,1 C 73 % 1016 hPa 0,0 l/m 0,0 m/s (0 Bft) O-SO 115 5,00 min 31,0 klux 14,0 C 19,0 C
18.07.2004 08:15 19,1 C 17,2 C 75 % 1016 hPa 0,0 l/m 0,0 m/s (0 Bft) O-SO 120 0,00 min 27,1 klux 14,6 C 19,1 C
18.07.2004 08:20 18,8 C 17,5 C 78 % 1016 hPa 0,0 l/m 0,0 m/s (0 Bft) O-SO 120 0,00 min 28,5 klux 14,9 C 18,8 C
18.07.2004 08:25 19,0 C 17,6 C 77 % 1016 hPa 0,0 l/m 0,0 m/s (0 Bft) O 90 0,00 min 28,6 klux 14,9 C 19,0 C
18.07.2004 08:30 19,4 C 17,7 C 77 % 1016 hPa 0,0 l/m 0,0 m/s (0 Bft) O 90 5,00 min 35,8 klux 15,3 C 19,4 C
18.07.2004 08:35 19,5 C 17,9 C 76 % 1016 hPa 0,0 l/m 0,2 m/s (0 Bft) SO22.5 125 0,00 min 26,7 klux 15,2 C 19,5 C
18.07.2004 08:40 19,1 C 18,0 C 77 % 1016 hPa 0,0 l/m 0,9 m/s (0 Bft) SO 135 0,00 min 23,4 klux 15,0 C 19,1 C
18.07.2004 08:45 19,1 C 18,0 C 78 % 1016 hPa 0,0 l/m 0,0 m/s (0 Bft) SO 135 0,00 min 36,0 klux 15,2 C 19,1 C
18.07.2004 08:50 19,0 C 18,1 C 78 % 1016 hPa 0,0 l/m 0,0 m/s (0 Bft) O-SO22.5 105 0,00 min 20,0 klux 15,1 C 19,0 C
18.07.2004 08:55 19,2 C 18,1 C 79 % 1016 hPa 0,0 l/m 0,0 m/s (0 Bft) O-SO 105 0,00 min 36,6 klux 15,5 C 19,2 C
18.07.2004 09:00 19,3 C 18,1 C 77 % 1016 hPa 0,0 l/m 0,0 m/s (0 Bft) O-SO 105 5,00 min 44,8 klux 15,2 C 19,3 C
18.07.2004 09:05 19,4 C 18,1 C 77 % 1016 hPa 0,0 l/m 0,0 m/s (0 Bft) O-SO 105 5,00 min 52,8 klux 15,3 C 19,4 C
18.07.2004 09:10 19,6 C 18,2 C 77 % 1016 hPa 0,0 l/m 0,0 m/s (0 Bft) O-SO 105 5,00 min 55,8 klux 15,5 C 19,6 C
18.07.2004 09:15 19,7 C 18,3 C 75 % 1016 hPa 0,0 l/m 0,3 m/s (0 Bft) S-SW67.5 210 5,00 min 56,1 klux 15,1 C 19,7 C
18.07.2004 09:20 19,7 C 18,3 C 75 % 1016 hPa 0,0 l/m 0,3 m/s (0 Bft) W-SW22.5 245 5,00 min 57,5 klux 15,1 C 19,7 C
18.07.2004 09:25 20,2 C 18,5 C 75 % 1016 hPa 0,0 l/m 1,1 m/s (0 Bft) O22.5 100 5,00 min 59,4 klux 15,6 C 20,2 C
18.07.2004 09:30 20,4 C 18,7 C 72 % 1016 hPa 0,0 l/m 0,0 m/s (0 Bft) O-SO22.5 110 5,00 min 60,7 klux 15,2 C 20,4 C
18.07.2004 09:35 20,5 C 18,9 C 73 % 1016 hPa 0,0 l/m 0,3 m/s (0 Bft) SW67.5 215 5,00 min 63,3 klux 15,5 C 20,5 C
18.07.2004 09:40 20,9 C 19,0 C 73 % 1016 hPa 0,0 l/m 1,4 m/s (1 Bft) O-NO22.5 75 5,00 min 64,2 klux 15,9 C 20,9 C
18.07.2004 09:45 21,4 C 19,1 C 70 % 1016 hPa 0,0 l/m 1,0 m/s (0 Bft) SO22.5 135 5,00 min 66,7 klux 15,7 C 21,4 C
18.07.2004 09:50 21,6 C 19,5 C 67 % 1016 hPa 0,0 l/m 1,3 m/s (1 Bft) S-SO45 155 5,00 min 63,9 klux 15,2 C 21,6 C
18.07.2004 09:55 21,6 C 19,6 C 68 % 1016 hPa 0,0 l/m 1,4 m/s (1 Bft) SO67.5 125 5,00 min 67,9 klux 15,4 C 21,6 C
18.07.2004 10:00 21,7 C 20,1 C 68 % 1016 hPa 0,0 l/m 0,2 m/s (0 Bft) S-SO67.5 160 5,00 min 68,4 klux 15,5 C 21,7 C
18.07.2004 10:05 22,0 C 20,8 C 67 % 1016 hPa 0,0 l/m 1,9 m/s (1 Bft) SO45 135 5,00 min 68,5 klux 15,6 C 21,8 C
18.07.2004 10:10 22,1 C 21,2 C 66 % 1016 hPa 0,0 l/m 2,6 m/s (1 Bft) SO22.5 135 5,00 min 69,8 klux 15,4 C 21,1 C
18.07.2004 10:15 22,2 C 22,3 C 65 % 1016 hPa 0,0 l/m 1,8 m/s (1 Bft) O-SO67.5 115 5,00 min 72,8 klux 15,3 C 22,2 C
18.07.2004 10:20 22,2 C 23,2 C 63 % 1016 hPa 0,0 l/m 2,5 m/s (1 Bft) SO22.5 135 5,00 min 74,8 klux 14,8 C 21,4 C
18.07.2004 10:25 22,5 C 23,6 C 64 % 1016 hPa 0,0 l/m 2,7 m/s (1 Bft) SO22.5 130 5,00 min 77,8 klux 15,3 C 21,5 C
18.07.2004 10:30 22,9 C 24,5 C 60 % 1016 hPa 0,0 l/m 2,0 m/s (1 Bft) S67.5 180 5,00 min 74,0 klux 14,7 C 22,6 C
18.07.2004 10:35 22,9 C 25,1 C 60 % 1016 hPa 0,0 l/m 1,7 m/s (1 Bft) S-SW45 195 5,00 min 76,5 klux 14,7 C 22,9 C
18.07.2004 10:40 23,1 C 25,6 C 59 % 1016 hPa 0,0 l/m 2,5 m/s (1 Bft) S67.5 180 5,00 min 78,2 klux 14,6 C 22,4 C
18.07.2004 10:45 23,7 C 25,6 C 60 % 1016 hPa 0,0 l/m 1,9 m/s (1 Bft) S-SO67.5 160 5,00 min 81,5 klux 15,5 C 23,6 C
18.07.2004 10:50 23,3 C 26,2 C 56 % 1016 hPa 0,0 l/m 2,1 m/s (1 Bft) S-SW45 210 5,00 min 84,1 klux 14,0 C 23,0 C
18.07.2004 10:55 23,4 C 26,7 C 57 % 1016 hPa 0,0 l/m 3,1 m/s (1 Bft) S67.5 175 5,00 min 87,3 klux 14,4 C 22,2 C
18.07.2004 11:00 23,5 C 27,0 C 57 % 1016 hPa 0,0 l/m 2,1 m/s (1 Bft) S67.5 185 5,00 min 88,6 klux 14,5 C 23,1 C
18.07.2004 11:05 24,1 C 27,3 C 55 % 1016 hPa 0,0 l/m 1,5 m/s (1 Bft) S-SO67.5 165 5,00 min 86,3 klux 14,5 C 24,1 C
18.07.2004 11:10 24,4 C 27,4 C 55 % 1016 hPa 0,0 l/m 2,2 m/s (1 Bft) S-SO67.5 160 5,00 min 85,6 klux 14,8 C 24,0 C
18.07.2004 11:15 23,7 C 27,8 C 56 % 1016 hPa 0,0 l/m 2,8 m/s (1 Bft) SO22.5 135 5,00 min 84,8 klux 14,4 C 22,8 C
18.07.2004 11:20 24,0 C 28,0 C 58 % 1016 hPa 0,0 l/m 1,3 m/s (1 Bft) S67.5 185 5,00 min 85,7 klux 15,2 C 24,0 C
18.07.2004 11:25 24,1 C 28,2 C 59 % 1016 hPa 0,0 l/m 2,0 m/s (1 Bft) SW67.5 220 5,00 min 84,7 klux 15,6 C 23,9 C
18.07.2004 11:30 24,4 C 28,2 C 56 % 1016 hPa 0,0 l/m 2,8 m/s (1 Bft) S-SO45 150 5,00 min 86,6 klux 15,0 C 23,5 C
18.07.2004 11:35 24,6 C 28,3 C 57 % 1016 hPa 0,0 l/m 2,9 m/s (1 Bft) S-SO67.5 155 5,00 min 85,3 klux 15,5 C 23,7 C
18.07.2004 11:40 24,9 C 28,4 C 55 % 1016 hPa 0,0 l/m 3,1 m/s (1 Bft) SO67.5 140 5,00 min 88,8 klux 15,2 C 23,8 C
18.07.2004 11:45 24,7 C 28,6 C 56 % 1016 hPa 0,0 l/m 2,4 m/s (1 Bft) SO45 135 5,00 min 88,7 klux 15,3 C 24,1 C
18.07.2004 11:50 25,0 C 28,8 C 54 % 1016 hPa 0,0 l/m 4,2 m/s (1 Bft) SO67.5 135 5,00 min 93,8 klux 15,0 C 23,3 C
18.07.2004 11:55 25,2 C 29,1 C 53 % 1016 hPa 0,0 l/m 3,6 m/s (1 Bft) SW45 220 5,00 min 81,1 klux 14,9 C 23,8 C
18.07.2004 12:00 25,6 C 29,5 C 54 % 1016 hPa 0,0 l/m 2,5 m/s (1 Bft) SO22.5 140 5,00 min 97,0 klux 15,6 C 25,0 C
18.07.2004 12:05 25,9 C 29,6 C 53 % 1016 hPa 0,0 l/m 3,2 m/s (1 Bft) SO22.5 140 5,00 min 94,7 klux 15,6 C 24,9 C
18.07.2004 12:10 25,5 C 29,5 C 51 % 1016 hPa 0,0 l/m 0,0 m/s (0 Bft) S-SW67.5 195 0,00 min 58,6 klux 14,6 C 25,5 C
18.07.2004 12:15 25,4 C 29,5 C 52 % 1016 hPa 0,0 l/m 1,5 m/s (1 Bft) O67.5 85 5,00 min 81,4 klux 14,8 C 25,4 C
18.07.2004 12:20 25,0 C 29,4 C 51 % 1016 hPa 0,0 l/m 2,5 m/s (1 Bft) O22.5 90 5,00 min 80,5 klux 14,1 C 24,4 C
18.07.2004 12:25 25,6 C 29,4 C 53 % 1016 hPa 0,0 l/m 1,3 m/s (1 Bft) SO67.5 140 0,00 min 45,1 klux 15,3 C 25,6 C
18.07.2004 12:30 25,8 C 29,0 C 51 % 1016 hPa 0,0 l/m 4,2 m/s (1 Bft) SO45 145 5,00 min 80,0 klux 14,9 C 24,3 C
18.07.2004 12:35 25,5 C 28,6 C 49 % 1016 hPa 0,0 l/m 2,3 m/s (1 Bft) SW67.5 220 0,00 min 49,8 klux 14,0 C 25,1 C
18.07.2004 12:40 25,8 C 28,5 C 50 % 1016 hPa 0,0 l/m 0,4 m/s (0 Bft) S-SW45 210 0,00 min 57,0 klux 14,6 C 25,8 C
18.07.2004 12:45 25,8 C 28,4 C 51 % 1016 hPa 0,0 l/m 3,1 m/s (1 Bft) SW45 230 0,00 min 51,6 klux 14,9 C 24,9 C
18.07.2004 12:50 25,6 C 28,3 C 51 % 1016 hPa 0,0 l/m 0,3 m/s (0 Bft) S67.5 180 0,00 min 44,7 klux 14,7 C 25,6 C
18.07.2004 12:55 25,6 C 28,1 C 53 % 1016 hPa 0,0 l/m 1,4 m/s (1 Bft) S-SO45 165 5,00 min 89,4 klux 15,3 C 25,6 C
18.07.2004 13:00 25,8 C 28,4 C 52 % 1016 hPa 0,0 l/m 2,9 m/s (1 Bft) W-SW45 240 5,00 min 94,8 klux 15,2 C 25,0 C
18.07.2004 13:05 25,8 C 28,8 C 50 % 1016 hPa 0,0 l/m 2,6 m/s (1 Bft) S-SW45 205 0,00 min 63,7 klux 14,6 C 25,2 C
18.07.2004 13:10 25,2 C 28,8 C 50 % 1016 hPa 0,0 l/m 2,7 m/s (1 Bft) W45 260 0,00 min 56,5 klux 14,0 C 24,4 C
18.07.2004 13:15 25,9 C 29,0 C 51 % 1016 hPa 0,0 l/m 4,1 m/s (1 Bft) S67.5 190 0,00 min 65,2 klux 15,0 C 24,4 C
18.07.2004 13:20 25,9 C 29,1 C 51 % 1016 hPa 0,0 l/m 2,0 m/s (1 Bft) O22.5 90 0,00 min 54,2 klux 15,0 C 25,7 C
18.07.2004 13:25 25,7 C 29,2 C 50 % 1016 hPa 0,0 l/m 2,4 m/s (1 Bft) O-SO45 105 5,00 min 87,1 klux 14,5 C 25,2 C
18.07.2004 13:30 25,8 C 29,1 C 53 % 1016 hPa 0,0 l/m 1,4 m/s (1 Bft) W-SW 255 0,00 min 57,2 klux 15,5 C 25,8 C
18.07.2004 13:35 26,0 C 29,0 C 49 % 1016 hPa 0,0 l/m 0,0 m/s (0 Bft) W 260 0,00 min 45,7 klux 14,4 C 26,0 C
18.07.2004 13:40 25,8 C 28,9 C 48 % 1016 hPa 0,0 l/m 1,4 m/s (1 Bft) W22.5 270 0,00 min 42,5 klux 13,9 C 25,8 C
18.07.2004 13:45 26,0 C 28,8 C 49 % 1016 hPa 0,0 l/m 1,8 m/s (1 Bft) SW45 235 0,00 min 44,1 klux 14,4 C 26,0 C
18.07.2004 13:50 25,8 C 28,7 C 47 % 1016 hPa 0,0 l/m 1,9 m/s (1 Bft) SW45 230 0,00 min 31,6 klux 13,6 C 25,7 C
18.07.2004 13:55 26,0 C 28,4 C 49 % 1016 hPa 0,0 l/m 1,4 m/s (1 Bft) SW45 225 0,00 min 43,2 klux 14,4 C 26,0 C
18.07.2004 14:00 26,3 C 28,4 C 50 % 1016 hPa 0,0 l/m 1,3 m/s (1 Bft) S67.5 180 0,00 min 46,3 klux 15,0 C 26,3 C
18.07.2004 14:05 26,3 C 28,3 C 48 % 1015 hPa 0,0 l/m 1,7 m/s (1 Bft) SO45 140 0,00 min 34,7 klux 14,4 C 26,3 C
18.07.2004 14:10 25,8 C 28,2 C 49 % 1015 hPa 0,0 l/m 1,3 m/s (1 Bft) S-SO45 150 0,00 min 31,1 klux 14,3 C 25,8 C
18.07.2004 14:15 25,9 C 28,1 C 46 % 1015 hPa 0,0 l/m 2,2 m/s (1 Bft) W-SW22.5 250 0,00 min 31,2 klux 13,4 C 25,6 C
18.07.2004 14:20 25,6 C 28,3 C 47 % 1015 hPa 0,0 l/m 2,2 m/s (1 Bft) SW67.5 230 5,00 min 76,6 klux 13,4 C 25,2 C
18.07.2004 14:25 26,7 C 28,5 C 46 % 1015 hPa 0,0 l/m 0,1 m/s (0 Bft) S67.5 180 0,00 min 65,4 klux 14,1 C 26,7 C
18.07.2004 14:30 26,5 C 28,8 C 45 % 1015 hPa 0,0 l/m 1,7 m/s (1 Bft) S-SW67.5 205 0,00 min 57,1 klux 13,6 C 26,5 C
18.07.2004 14:35 26,6 C 28,7 C 45 % 1015 hPa 0,0 l/m 1,3 m/s (1 Bft) S-SW67.5 210 0,00 min 37,9 klux 13,7 C 26,6 C
18.07.2004 14:40 25,9 C 28,4 C 47 % 1015 hPa 0,0 l/m 2,8 m/s (1 Bft) S-SW67.5 205 0,00 min 15,3 klux 13,7 C 25,2 C
18.07.2004 14:45 25,4 C 27,9 C 49 % 1015 hPa 0,0 l/m 1,1 m/s (0 Bft) S67.5 190 0,00 min 12,1 klux 13,9 C 25,4 C
18.07.2004 14:50 25,2 C 27,4 C 50 % 1015 hPa 0,0 l/m 0,2 m/s (0 Bft) S45 185 0,00 min 6,42 klux 14,0 C 25,2 C
18.07.2004 14:55 24,5 C 27,0 C 55 % 1015 hPa 0,0 l/m 0,9 m/s (0 Bft) S67.5 190 0,00 min 3,44 klux 14,9 C 24,5 C
18.07.2004 15:00 22,8 C 26,5 C 65 % 1015 hPa 0,4 l/m 2,2 m/s (1 Bft) SW45 215 0,00 min 1,67 klux 15,9 C 22,3 C
18.07.2004 15:05 22,0 C 25,1 C 69 % 1016 hPa 0,4 l/m 7,4 m/s (2 Bft) SW67.5 235 0,00 min 1,08 klux 16,0 C 17,9 C
18.07.2004 15:10 17,5 C 22,9 C 74 % 1016 hPa 0,7 l/m 23,3 m/s (4 Bft) W45 260 0,00 min 962 lux 12,8 C 8,1 C
18.07.2004 15:15 16,9 C 21,7 C 79 % 1016 hPa 3,2 l/m 7,8 m/s (2 Bft) W-NW67.5 290 0,00 min 962 lux 13,2 C 10,7 C
18.07.2004 15:20 16,8 C 20,4 C 80 % 1016 hPa 0,0 l/m 4,7 m/s (1 Bft) W45 265 0,00 min 1,13 klux 13,3 C 12,9 C
18.07.2004 15:25 16,8 C 19,7 C 84 % 1016 hPa 0,4 l/m 3,5 m/s (1 Bft) W22.5 265 0,00 min 1,38 klux 14,1 C 14,2 C
18.07.2004 15:30 16,6 C 19,3 C 86 % 1017 hPa 0,4 l/m 3,1 m/s (1 Bft) W-SW45 245 0,00 min 1,99 klux 14,2 C 14,4 C
18.07.2004 15:35 16,6 C 19,0 C 86 % 1016 hPa 0,4 l/m 1,5 m/s (1 Bft) W-NW22.5 300 0,00 min 3,43 klux 14,2 C 16,6 C
18.07.2004 15:40 16,9 C 18,6 C 88 % 1016 hPa 0,4 l/m 0,0 m/s (0 Bft) NW 305 0,00 min 6,16 klux 14,9 C 16,9 C
18.07.2004 15:45 17,1 C 18,5 C 89 % 1016 hPa 0,0 l/m 0,1 m/s (0 Bft) W-SW22.5 245 0,00 min 10,4 klux 15,3 C 17,1 C
18.07.2004 15:50 17,4 C 18,5 C 89 % 1016 hPa 0,0 l/m 0,0 m/s (0 Bft) SW22.5 225 0,00 min 14,1 klux 15,6 C 17,4 C
18.07.2004 15:55 17,5 C 18,5 C 90 % 1016 hPa 0,0 l/m 0,0 m/s (0 Bft) S 170 0,00 min 25,3 klux 15,8 C 17,5 C
18.07.2004 16:00 17,9 C 18,8 C 89 % 1016 hPa 0,0 l/m 1,6 m/s (1 Bft) W-SW45 255 0,00 min 31,5 klux 16,1 C 17,9 C
18.07.2004 16:05 18,0 C 18,9 C 86 % 1016 hPa 0,0 l/m 2,8 m/s (1 Bft) W22.5 260 0,00 min 31,7 klux 15,6 C 16,4 C
18.07.2004 16:10 18,3 C 18,9 C 85 % 1016 hPa 0,0 l/m 2,1 m/s (1 Bft) W-SW22.5 255 0,00 min 21,4 klux 15,7 C 17,8 C
18.07.2004 16:15 18,7 C 19,1 C 84 % 1016 hPa 0,0 l/m 1,2 m/s (1 Bft) W 265 0,00 min 18,3 klux 15,9 C 18,7 C
18.07.2004 16:20 19,0 C 19,2 C 82 % 1016 hPa 0,0 l/m 0,2 m/s (0 Bft) W22.5 260 0,00 min 30,0 klux 15,9 C 19,0 C
18.07.2004 16:25 19,2 C 19,4 C 82 % 1016 hPa 0,0 l/m 0,0 m/s (0 Bft) SW45 225 0,00 min 31,9 klux 16,0 C 19,2 C
18.07.2004 16:30 19,4 C 19,6 C 81 % 1016 hPa 0,0 l/m 1,4 m/s (1 Bft) SW22.5 235 0,00 min 30,8 klux 16,1 C 19,4 C
18.07.2004 16:35 19,4 C 19,6 C 79 % 1016 hPa 0,0 l/m 0,4 m/s (0 Bft) SW22.5 225 0,00 min 27,9 klux 15,7 C 19,4 C
18.07.2004 16:40 19,8 C 19,8 C 80 % 1016 hPa 0,0 l/m 0,1 m/s (0 Bft) W-SW22.5 240 0,00 min 24,2 klux 16,2 C 19,8 C
18.07.2004 16:45 19,5 C 20,0 C 79 % 1016 hPa 0,0 l/m 1,4 m/s (1 Bft) W-SW22.5 255 0,00 min 24,5 klux 15,8 C 19,5 C
18.07.2004 16:50 19,8 C 20,3 C 81 % 1016 hPa 0,0 l/m 0,9 m/s (0 Bft) SW22.5 230 0,00 min 33,3 klux 16,4 C 19,8 C
18.07.2004 16:55 19,8 C 20,4 C 80 % 1016 hPa 0,0 l/m 0,3 m/s (0 Bft) SW22.5 230 0,00 min 31,9 klux 16,2 C 19,8 C
18.07.2004 17:00 19,6 C 20,4 C 80 % 1016 hPa 0,0 l/m 1,5 m/s (1 Bft) W-SW22.5 250 0,00 min 24,2 klux 16,1 C 19,6 C
18.07.2004 17:05 19,7 C 20,3 C 79 % 1016 hPa 0,0 l/m 1,6 m/s (1 Bft) W-SW 255 0,00 min 20,3 klux 16,0 C 19,7 C
18.07.2004 17:10 19,6 C 20,3 C 80 % 1016 hPa 0,0 l/m 0,3 m/s (0 Bft) SW22.5 225 0,00 min 19,0 klux 16,1 C 19,6 C
18.07.2004 17:15 19,5 C 20,3 C 80 % 1016 hPa 0,0 l/m 1,0 m/s (0 Bft) SW22.5 230 0,00 min 20,3 klux 16,0 C 19,5 C
18.07.2004 17:20 19,6 C 20,3 C 80 % 1016 hPa 0,0 l/m 1,4 m/s (1 Bft) W 260 0,00 min 23,3 klux 16,1 C 19,6 C
18.07.2004 17:25 19,7 C 20,3 C 80 % 1016 hPa 0,0 l/m 1,4 m/s (1 Bft) W-SW22.5 250 0,00 min 21,2 klux 16,1 C 19,7 C
18.07.2004 17:30 19,7 C 20,3 C 80 % 1016 hPa 0,0 l/m 0,0 m/s (0 Bft) W-SW 250 0,00 min 20,9 klux 16,1 C 19,7 C
18.07.2004 17:35 19,7 C 20,3 C 80 % 1015 hPa 0,0 l/m 0,0 m/s (0 Bft) SW 225 0,00 min 20,8 klux 16,1 C 19,7 C
18.07.2004 17:40 20,0 C 20,4 C 79 % 1015 hPa 0,0 l/m 0,0 m/s (0 Bft) SW 225 0,00 min 22,8 klux 16,2 C 20,0 C
18.07.2004 17:45 20,0 C 20,6 C 78 % 1015 hPa 0,0 l/m 0,0 m/s (0 Bft) SW 225 0,00 min 30,0 klux 16,0 C 20,0 C
18.07.2004 17:50 20,6 C 20,6 C 78 % 1015 hPa 0,0 l/m 0,2 m/s (0 Bft) SW 235 0,00 min 32,7 klux 16,6 C 20,6 C
18.07.2004 17:55 20,4 C 20,7 C 77 % 1015 hPa 0,0 l/m 0,0 m/s (0 Bft) SW 230 0,00 min 22,7 klux 16,2 C 20,4 C
18.07.2004 18:00 20,4 C 20,8 C 77 % 1015 hPa 0,0 l/m 0,0 m/s (0 Bft) SW 230 0,00 min 23,4 klux 16,2 C 20,4 C
18.07.2004 18:05 20,2 C 20,8 C 78 % 1015 hPa 0,0 l/m 0,0 m/s (0 Bft) SW 230 0,00 min 15,8 klux 16,2 C 20,2 C
18.07.2004 18:10 20,3 C 20,7 C 78 % 1015 hPa 0,0 l/m 0,0 m/s (0 Bft) SW 230 0,00 min 15,4 klux 16,3 C 20,3 C
18.07.2004 18:15 20,3 C 20,7 C 79 % 1015 hPa 0,0 l/m 0,0 m/s (0 Bft) SW 230 0,00 min 13,3 klux 16,5 C 20,3 C
18.07.2004 18:20 20,2 C 20,8 C 80 % 1015 hPa 0,0 l/m 0,0 m/s (0 Bft) SW 230 0,00 min 29,3 klux 16,6 C 20,2 C
18.07.2004 18:25 20,6 C 21,1 C 79 % 1015 hPa 0,0 l/m 0,0 m/s (0 Bft) SW 230 0,00 min 32,7 klux 16,8 C 20,6 C
18.07.2004 18:30 21,2 C 21,4 C 74 % 1015 hPa 0,0 l/m 0,0 m/s (0 Bft) SW 230 0,00 min 27,3 klux 16,4 C 21,2 C
18.07.2004 18:35 21,2 C 21,5 C 75 % 1015 hPa 0,0 l/m 0,2 m/s (0 Bft) S-SO45 160 0,00 min 22,6 klux 16,6 C 21,2 C
18.07.2004 18:40 21,0 C 21,4 C 75 % 1015 hPa 0,0 l/m 0,0 m/s (0 Bft) S-SO45 165 0,00 min 22,5 klux 16,4 C 21,0 C
18.07.2004 18:45 20,8 C 21,3 C 77 % 1015 hPa 0,0 l/m 1,0 m/s (0 Bft) O22.5 95 0,00 min 15,7 klux 16,6 C 20,8 C
18.07.2004 18:50 20,6 C 21,2 C 78 % 1015 hPa 0,0 l/m 0,3 m/s (0 Bft) SO22.5 145 0,00 min 13,9 klux 16,6 C 20,6 C
18.07.2004 18:55 20,7 C 21,1 C 79 % 1015 hPa 0,0 l/m 0,0 m/s (0 Bft) S-SO 160 0,00 min 14,7 klux 16,9 C 20,7 C
18.07.2004 19:00 20,3 C 21,0 C 79 % 1015 hPa 0,0 l/m 1,2 m/s (1 Bft) S45 180 0,00 min 11,6 klux 16,5 C 20,3 C
18.07.2004 19:05 20,1 C 20,8 C 79 % 1015 hPa 0,0 l/m 1,6 m/s (1 Bft) SW22.5 230 0,00 min 12,6 klux 16,3 C 20,1 C
18.07.2004 19:10 20,0 C 20,8 C 79 % 1016 hPa 0,0 l/m 1,4 m/s (1 Bft) W-SW45 250 0,00 min 14,6 klux 16,2 C 20,0 C
18.07.2004 19:15 20,0 C 20,7 C 79 % 1015 hPa 0,0 l/m 0,0 m/s (0 Bft) W 270 0,00 min 13,9 klux 16,2 C 20,0 C
18.07.2004 19:20 20,0 C 20,6 C 79 % 1015 hPa 0,0 l/m 0,0 m/s (0 Bft) W-SW 240 0,00 min 12,9 klux 16,2 C 20,0 C
18.07.2004 19:25 19,9 C 20,5 C 81 % 1015 hPa 0,0 l/m 0,3 m/s (0 Bft) W-SW22.5 240 0,00 min 11,5 klux 16,5 C 19,9 C
18.07.2004 19:30 19,9 C 20,5 C 81 % 1015 hPa 0,0 l/m 0,9 m/s (0 Bft) W 260 0,00 min 10,1 klux 16,5 C 19,9 C
18.07.2004 19:35 19,8 C 20,4 C 80 % 1015 hPa 0,0 l/m 1,6 m/s (1 Bft) W-SW22.5 250 0,00 min 10,1 klux 16,2 C 19,8 C
18.07.2004 19:40 20,0 C 20,3 C 79 % 1015 hPa 0,0 l/m 0,1 m/s (0 Bft) W 260 0,00 min 10,2 klux 16,2 C 20,0 C
18.07.2004 19:45 20,2 C 20,3 C 79 % 1015 hPa 0,0 l/m 0,0 m/s (0 Bft) S-SW45 200 0,00 min 19,0 klux 16,4 C 20,2 C
18.07.2004 19:50 21,0 C 20,6 C 76 % 1015 hPa 0,0 l/m 0,0 m/s (0 Bft) S-SO 160 0,00 min 9,9 klux 16,6 C 21,0 C
18.07.2004 19:55 20,1 C 20,5 C 77 % 1015 hPa 0,0 l/m 0,0 m/s (0 Bft) W-NW22.5 295 0,00 min 6,29 klux 15,9 C 20,1 C
18.07.2004 20:00 20,0 C 20,4 C 78 % 1015 hPa 0,0 l/m 0,0 m/s (0 Bft) W-SW67.5 250 0,00 min 5,86 klux 16,0 C 20,0 C
18.07.2004 20:05 19,8 C 20,3 C 78 % 1015 hPa 0,0 l/m 0,0 m/s (0 Bft) W-SW 250 0,00 min 4,58 klux 15,8 C 19,8 C
18.07.2004 20:10 19,7 C 20,2 C 78 % 1015 hPa 0,0 l/m 0,0 m/s (0 Bft) W-SW22.5 255 0,00 min 5,90 klux 15,8 C 19,7 C
18.07.2004 20:15 19,7 C 20,2 C 78 % 1015 hPa 0,0 l/m 0,0 m/s (0 Bft) W-SW 255 0,00 min 6,45 klux 15,8 C 19,7 C
18.07.2004 20:20 19,6 C 20,1 C 80 % 1015 hPa 0,0 l/m 0,0 m/s (0 Bft) W-SW 255 0,00 min 5,33 klux 16,1 C 19,6 C
18.07.2004 20:25 19,4 C 20,0 C 82 % 1016 hPa 0,0 l/m 0,0 m/s (0 Bft) W-SW 255 0,00 min 4,62 klux 16,2 C 19,4 C
18.07.2004 20:30 19,3 C 19,9 C 83 % 1016 hPa 0,0 l/m 0,0 m/s (0 Bft) W-SW 255 0,00 min 4,49 klux 16,3 C 19,3 C
18.07.2004 20:35 19,2 C 19,7 C 84 % 1015 hPa 0,0 l/m 0,0 m/s (0 Bft) W-SW 250 0,00 min 4,57 klux 16,4 C 19,2 C
18.07.2004 20:40 19,0 C 19,7 C 84 % 1015 hPa 0,0 l/m 0,0 m/s (0 Bft) W-SW22.5 250 0,00 min 5,04 klux 16,2 C 19,0 C
18.07.2004 20:45 18,9 C 19,6 C 86 % 1015 hPa 0,0 l/m 0,0 m/s (0 Bft) S 175 0,00 min 5,00 klux 16,5 C 18,9 C
18.07.2004 20:50 18,8 C 19,5 C 86 % 1015 hPa 0,0 l/m 0,0 m/s (0 Bft) S-SW22.5 205 0,00 min 4,08 klux 16,4 C 18,8 C
18.07.2004 20:55 18,7 C 19,4 C 86 % 1016 hPa 0,0 l/m 1,2 m/s (1 Bft) SW45 235 0,00 min 2,70 klux 16,3 C 18,7 C
18.07.2004 21:00 18,5 C 19,2 C 86 % 1016 hPa 0,0 l/m 0,0 m/s (0 Bft) SW 230 0,00 min 2,32 klux 16,1 C 18,5 C
18.07.2004 21:05 18,3 C 19,1 C 86 % 1016 hPa 0,0 l/m 0,0 m/s (0 Bft) SW 230 0,00 min 1,96 klux 15,9 C 18,3 C
18.07.2004 21:10 18,2 C 19,0 C 87 % 1016 hPa 0,0 l/m 0,0 m/s (0 Bft) SW 230 0,00 min 1,57 klux 16,0 C 18,2 C
18.07.2004 21:15 18,0 C 18,8 C 87 % 1016 hPa 0,0 l/m 0,0 m/s (0 Bft) SW 230 0,00 min 1,40 klux 15,8 C 18,0 C
18.07.2004 21:20 17,9 C 18,7 C 88 % 1016 hPa 0,0 l/m 0,0 m/s (0 Bft) SW 230 0,00 min 1,04 klux 15,9 C 17,9 C
18.07.2004 21:25 17,8 C 18,5 C 89 % 1016 hPa 0,0 l/m 0,0 m/s (0 Bft) SW 230 0,00 min 684 lux 16,0 C 17,8 C
18.07.2004 21:30 17,7 C 18,5 C 89 % 1016 hPa 0,0 l/m 0,1 m/s (0 Bft) NW67.5 305 0,00 min 420 lux 15,9 C 17,7 C
18.07.2004 21:35 17,6 C 18,3 C 89 % 1016 hPa 0,0 l/m 0,1 m/s (0 Bft) N-NW45 330 0,00 min 284 lux 15,8 C 17,6 C
18.07.2004 21:40 17,4 C 18,1 C 89 % 1016 hPa 0,0 l/m 0,0 m/s (0 Bft) W-NW 295 0,00 min 203 lux 15,6 C 17,4 C
18.07.2004 21:45 17,3 C 18,0 C 90 % 1016 hPa 0,0 l/m 0,0 m/s (0 Bft) W-NW 295 0,00 min 145 lux 15,6 C 17,3 C
18.07.2004 21:50 17,0 C 17,9 C 90 % 1016 hPa 0,0 l/m 0,0 m/s (0 Bft) N-NW22.5 330 0,00 min 86 lux 15,3 C 17,0 C
18.07.2004 21:55 17,1 C 17,7 C 90 % 1016 hPa 0,0 l/m 0,0 m/s (0 Bft) N 0 0,00 min 45 lux 15,4 C 17,1 C
18.07.2004 22:00 16,8 C 17,7 C 91 % 1016 hPa 0,0 l/m 0,0 m/s (0 Bft) N 0 0,00 min 24 lux 15,3 C 16,8 C
18.07.2004 22:05 16,6 C 17,5 C 91 % 1016 hPa 0,0 l/m 0,0 m/s (0 Bft) N 0 0,00 min 17 lux 15,1 C 16,6 C
18.07.2004 22:10 16,8 C 17,3 C 92 % 1016 hPa 0,0 l/m 0,0 m/s (0 Bft) N 0 0,00 min 9 lux 15,5 C 16,8 C
18.07.2004 22:15 16,4 C 17,2 C 92 % 1016 hPa 0,0 l/m 0,0 m/s (0 Bft) N 0 0,00 min 5 lux 15,1 C 16,4 C
18.07.2004 22:20 16,2 C 17,1 C 92 % 1016 hPa 0,0 l/m 0,0 m/s (0 Bft) N 0 0,00 min 0 lux 14,9 C 16,2 C
18.07.2004 22:25 16,2 C 17,0 C 92 % 1016 hPa 0,0 l/m 0,0 m/s (0 Bft) N 0 0,00 min 0 lux 14,9 C 16,2 C
18.07.2004 22:30 16,3 C 16,9 C 92 % 1016 hPa 0,0 l/m 0,0 m/s (0 Bft) N 0 0,00 min 0 lux 15,0 C 16,3 C
18.07.2004 22:35 16,1 C 16,8 C 92 % 1016 hPa 0,0 l/m 0,0 m/s (0 Bft) W 260 0,00 min 0 lux 14,8 C 16,1 C
18.07.2004 22:40 16,0 C 16,7 C 92 % 1016 hPa 0,0 l/m 0,0 m/s (0 Bft) W 260 0,00 min 0 lux 14,7 C 16,0 C
18.07.2004 22:45 16,1 C 16,6 C 92 % 1016 hPa 0,0 l/m 0,0 m/s (0 Bft) W-NW22.5 290 0,00 min 0 lux 14,8 C 16,1 C
18.07.2004 22:50 16,3 C 16,6 C 93 % 1016 hPa 0,0 l/m 0,0 m/s (0 Bft) W-NW 295 0,00 min 0 lux 15,2 C 16,3 C
18.07.2004 22:55 16,5 C 16,7 C 93 % 1016 hPa 0,0 l/m 0,0 m/s (0 Bft) W-NW 295 0,00 min 0 lux 15,4 C 16,5 C
18.07.2004 23:00 16,5 C 16,7 C 93 % 1016 hPa 0,0 l/m 0,0 m/s (0 Bft) W-NW 295 0,00 min 0 lux 15,4 C 16,5 C
18.07.2004 23:05 16,7 C 16,8 C 93 % 1016 hPa 0,0 l/m 0,0 m/s (0 Bft) W-NW 295 0,00 min 0 lux 15,6 C 16,7 C
18.07.2004 23:10 16,9 C 16,8 C 94 % 1016 hPa 0,0 l/m 0,0 m/s (0 Bft) NW 305 0,00 min 0 lux 15,9 C 16,9 C
18.07.2004 23:15 17,0 C 16,9 C 93 % 1016 hPa 0,0 l/m 0,0 m/s (0 Bft) NW 305 0,00 min 0 lux 15,9 C 17,0 C
18.07.2004 23:20 17,0 C 17,0 C 93 % 1016 hPa 0,0 l/m 0,0 m/s (0 Bft) NW 305 0,00 min 0 lux 15,9 C 17,0 C
18.07.2004 23:25 17,0 C 17,0 C 93 % 1016 hPa 0,0 l/m 0,0 m/s (0 Bft) NW 305 0,00 min 0 lux 15,9 C 17,0 C
18.07.2004 23:30 17,1 C 17,0 C 94 % 1016 hPa 0,0 l/m 0,0 m/s (0 Bft) NW 310 0,00 min 0 lux 16,1 C 17,1 C
18.07.2004 23:35 17,0 C 17,1 C 94 % 1016 hPa 0,0 l/m 0,2 m/s (0 Bft) N45 355 0,00 min 0 lux 16,0 C 17,0 C
18.07.2004 23:40 17,0 C 17,1 C 94 % 1016 hPa 0,0 l/m 0,2 m/s (0 Bft) SO 130 0,00 min 0 lux 16,0 C 17,0 C
18.07.2004 23:45 16,8 C 17,1 C 94 % 1016 hPa 0,0 l/m 0,0 m/s (0 Bft) SO 130 0,00 min 0 lux 15,8 C 16,8 C
18.07.2004 23:50 16,8 C 17,1 C 94 % 1016 hPa 0,0 l/m 0,4 m/s (0 Bft) O45 80 0,00 min 0 lux 15,8 C 16,8 C
18.07.2004 23:55 16,9 C 17,1 C 94 % 1016 hPa 0,0 l/m 0,0 m/s (0 Bft) O 80 0,00 min 0 lux 15,9 C 16,9 C
_ Min-Zeit 06:10 05:50 14:30 00:00 - 00:10 - - - - 15:10 15:10
Minimum _ 13,9 C 14,5 C 45 % 1015 hPa - 0,0 m/s (0 Bft) - - - - 12,8 C 8,1 C
_ Max-Zeit 14:25 12:05 02:55 06:20 15:15 15:10 - - 06:35 12:00 18:55 14:25
Maximum _ 26,7 C 29,6 C 95 % 1017 hPa 3,2 l/m 23,3 m/s
W (9 Bft)
- - 5,00 min 97,0 klux 16,9 C 26,7 C
Durchschnitt _ 18,9 C 19,8 C 80 % 1016 hPa #6,1 l/m 0,8 m/s (1 Bft) SW - #5:00 h 22,5 klux 15,0 C 18,7 C